Time,TemperatureF,DewpointF,PressureIn,WindDirection,WindDirectionDegrees,WindSpeedMPH,WindSpeedGustMPH,Humidity,HourlyPrecipIn,Conditions,Clouds,dailyrainin,SoftwareType,DateUTC
2013-10-20 00:01:00,49.0,39.3,29.93,South,170,0.0,0.0,69,0.00,,---,0.00,VWS V14.01,2013-10-20 05:01:00,
2013-10-20 00:08:00,49.0,39.3,29.92,SW,223,0.0,0.0,69,0.00,,---,0.00,VWS V14.01,2013-10-20 05:08:00,
2013-10-20 00:16:00,48.9,39.2,29.92,SW,232,0.0,0.0,69,0.00,,---,0.00,VWS V14.01,2013-10-20 05:16:00,
2013-10-20 00:23:00,48.7,39.4,29.92,SW,225,0.0,0.0,70,0.00,,---,0.00,VWS V14.01,2013-10-20 05:23:00,
2013-10-20 00:31:00,48.4,39.1,29.92,SW,222,0.0,0.0,70,0.00,,---,0.00,VWS V14.01,2013-10-20 05:31:00,
2013-10-20 00:38:00,48.1,39.2,29.93,SW,233,0.0,0.0,71,0.00,,---,0.00,VWS V14.01,2013-10-20 05:38:00,
2013-10-20 00:46:00,47.8,38.9,29.93,SW,222,0.0,0.0,71,0.00,,---,0.00,VWS V14.01,2013-10-20 05:46:00,
2013-10-20 00:53:00,47.8,38.9,29.93,SSE,156,0.0,0.0,71,0.00,,---,0.00,VWS V14.01,2013-10-20 05:53:00,
2013-10-20 01:01:00,47.8,38.9,29.93,SSW,204,0.0,0.0,71,0.00,,---,0.00,VWS V14.01,2013-10-20 06:01:00,
2013-10-20 01:08:00,47.6,38.7,29.93,SW,228,0.0,0.0,71,0.00,,---,0.00,VWS V14.01,2013-10-20 06:08:00,
2013-10-20 01:16:00,47.4,38.8,29.92,SW,225,0.0,0.0,72,0.00,,---,0.00,VWS V14.01,2013-10-20 06:16:00,
2013-10-20 01:23:00,47.1,38.9,29.93,SE,138,0.0,0.0,73,0.00,,---,0.00,VWS V14.01,2013-10-20 06:23:00,
2013-10-20 01:31:00,46.8,39.0,29.93,SW,231,0.0,0.0,74,0.00,,---,0.00,VWS V14.01,2013-10-20 06:31:00,
2013-10-20 01:38:00,46.5,38.7,29.93,SW,235,0.0,0.0,74,0.00,,---,0.00,VWS V14.01,2013-10-20 06:38:00,
2013-10-20 01:46:00,46.3,38.8,29.93,South,191,0.0,0.0,75,0.00,,---,0.00,VWS V14.01,2013-10-20 06:46:00,
2013-10-20 01:53:00,46.0,38.5,29.92,WSW,240,0.0,0.0,75,0.00,,---,0.00,VWS V14.01,2013-10-20 06:53:00,
2013-10-20 02:01:00,45.9,38.8,29.92,SSW,212,0.0,0.0,76,0.00,,---,0.00,VWS V14.01,2013-10-20 07:01:00,
2013-10-20 02:08:00,45.6,38.5,29.93,South,175,0.0,0.0,76,0.00,,---,0.00,VWS V14.01,2013-10-20 07:08:00,
2013-10-20 02:16:00,45.4,38.6,29.93,SSE,151,0.0,0.0,77,0.00,,---,0.00,VWS V14.01,2013-10-20 07:16:00,
2013-10-20 02:24:00,45.1,38.3,29.92,SW,230,0.0,0.0,77,0.00,,---,0.00,VWS V14.01,2013-10-20 07:24:00,
2013-10-20 02:31:00,44.9,38.5,29.92,SW,227,0.0,0.0,78,0.00,,---,0.00,VWS V14.01,2013-10-20 07:31:00,
2013-10-20 02:39:00,44.7,38.3,29.92,SSE,159,0.0,0.0,78,0.00,,---,0.00,VWS V14.01,2013-10-20 07:39:00,
2013-10-20 02:46:00,44.5,38.1,29.92,SW,222,0.0,0.0,78,0.00,,---,0.00,VWS V14.01,2013-10-20 07:46:00,
2013-10-20 02:54:00,44.4,38.3,29.92,WSW,238,0.0,0.0,79,0.00,,---,0.00,VWS V14.01,2013-10-20 07:54:00,
2013-10-20 03:01:00,44.3,38.2,29.92,SSW,202,0.0,0.0,79,0.00,,---,0.00,VWS V14.01,2013-10-20 08:01:00,
2013-10-20 03:09:00,44.1,38.0,29.92,SW,223,3.0,7.0,79,0.00,,---,0.00,VWS V14.01,2013-10-20 08:09:00,
2013-10-20 03:16:00,43.9,38.1,29.92,SW,215,4.0,7.0,80,0.00,,---,0.00,VWS V14.01,2013-10-20 08:16:00,
2013-10-20 03:24:00,43.8,38.4,29.92,WSW,244,0.0,7.0,81,0.00,,---,0.00,VWS V14.01,2013-10-20 08:24:00,
2013-10-20 03:31:00,43.6,38.2,29.92,South,187,0.0,8.0,81,0.00,,---,0.00,VWS V14.01,2013-10-20 08:31:00,
2013-10-20 03:39:00,43.5,38.1,29.91,WSW,239,0.0,8.0,81,0.00,,---,0.00,VWS V14.01,2013-10-20 08:39:00,
2013-10-20 03:46:00,43.4,38.0,29.92,SSE,163,5.0,6.0,81,0.00,,---,0.00,VWS V14.01,2013-10-20 08:46:00,
2013-10-20 03:54:00,43.3,38.2,29.92,SSW,206,0.0,7.0,82,0.00,,---,0.00,VWS V14.01,2013-10-20 08:54:00,
2013-10-20 04:01:00,43.2,38.1,29.92,SW,228,0.0,6.0,82,0.00,,---,0.00,VWS V14.01,2013-10-20 09:01:00,
2013-10-20 04:09:00,43.1,38.0,29.92,South,170,2.0,6.0,82,0.00,,---,0.00,VWS V14.01,2013-10-20 09:09:00,
2013-10-20 04:16:00,43.1,38.3,29.92,WSW,244,2.0,5.0,83,0.00,,---,0.00,VWS V14.01,2013-10-20 09:16:00,
2013-10-20 04:24:00,43.0,38.2,29.92,SSW,209,0.0,5.0,83,0.00,,---,0.00,VWS V14.01,2013-10-20 09:24:00,
2013-10-20 04:31:00,43.0,38.2,29.92,SW,219,0.0,7.0,83,0.00,,---,0.00,VWS V14.01,2013-10-20 09:31:00,
2013-10-20 04:39:00,43.1,38.3,29.92,SSE,162,0.0,7.0,83,0.00,,---,0.00,VWS V14.01,2013-10-20 09:39:00,
2013-10-20 04:46:00,43.0,38.2,29.92,SSW,213,0.0,4.0,83,0.00,,---,0.00,VWS V14.01,2013-10-20 09:46:00,
2013-10-20 04:54:00,43.1,38.3,29.92,SSW,213,0.0,5.0,83,0.00,,---,0.00,VWS V14.01,2013-10-20 09:54:00,
2013-10-20 05:01:00,43.0,38.2,29.92,SSW,208,0.0,6.0,83,0.00,,---,0.00,VWS V14.01,2013-10-20 10:01:00,
2013-10-20 05:09:00,42.8,38.0,29.92,SSE,155,0.0,6.0,83,0.00,,---,0.00,VWS V14.01,2013-10-20 10:09:00,
2013-10-20 05:16:00,42.6,38.1,29.92,SSW,207,0.0,4.0,84,0.00,,---,0.00,VWS V14.01,2013-10-20 10:16:00,
2013-10-20 05:24:00,42.5,38.0,29.92,SW,223,0.0,6.0,84,0.00,,---,0.00,VWS V14.01,2013-10-20 10:24:00,
2013-10-20 05:31:00,42.5,38.0,29.92,South,173,0.0,5.0,84,0.00,,---,0.00,VWS V14.01,2013-10-20 10:31:00,
2013-10-20 05:39:00,42.4,37.9,29.92,South,178,1.0,5.0,84,0.00,,---,0.00,VWS V14.01,2013-10-20 10:39:00,
2013-10-20 05:47:00,42.4,37.9,29.92,South,178,0.0,0.0,84,0.00,,---,0.00,VWS V14.01,2013-10-20 10:47:00,
2013-10-20 05:54:00,42.3,38.1,29.92,SSW,207,0.0,2.0,85,0.00,,---,0.00,VWS V14.01,2013-10-20 10:54:00,
2013-10-20 06:02:00,42.3,38.1,29.92,SW,223,0.0,6.0,85,0.00,,---,0.00,VWS V14.01,2013-10-20 11:02:00,
2013-10-20 06:09:00,42.2,38.0,29.92,SW,221,0.0,6.0,85,0.00,,---,0.00,VWS V14.01,2013-10-20 11:09:00,
2013-10-20 06:17:00,42.1,37.9,29.92,South,179,0.0,5.0,85,0.00,,---,0.00,VWS V14.01,2013-10-20 11:17:00,
2013-10-20 06:24:00,41.9,37.7,29.92,SSW,199,0.0,5.0,85,0.00,,---,0.00,VWS V14.01,2013-10-20 11:24:00,
2013-10-20 06:32:00,41.7,37.5,29.92,South,174,0.0,4.0,85,0.00,,---,0.00,VWS V14.01,2013-10-20 11:32:00,
2013-10-20 06:39:00,41.6,37.7,29.92,South,176,0.0,5.0,86,0.00,,---,0.00,VWS V14.01,2013-10-20 11:39:00,
2013-10-20 06:47:00,41.5,37.6,29.92,SSW,200,0.0,4.0,86,0.00,,---,0.00,VWS V14.01,2013-10-20 11:47:00,
2013-10-20 06:54:00,41.4,37.5,29.93,SW,220,0.0,5.0,86,0.00,,---,0.00,VWS V14.01,2013-10-20 11:54:00,
2013-10-20 07:02:00,41.4,37.5,29.92,SW,222,0.0,5.0,86,0.00,,---,0.00,VWS V14.01,2013-10-20 12:02:00,
2013-10-20 07:09:00,41.5,37.9,29.93,South,183,0.0,6.0,87,0.00,,---,0.00,VWS V14.01,2013-10-20 12:09:00,
2013-10-20 07:17:00,41.6,38.0,29.92,South,171,0.0,6.0,87,0.00,,---,0.00,VWS V14.01,2013-10-20 12:17:00,
2013-10-20 07:24:00,41.5,37.6,29.93,SW,218,4.0,7.0,86,0.00,,---,0.00,VWS V14.01,2013-10-20 12:24:00,
2013-10-20 07:32:00,41.6,37.7,29.93,SSW,203,8.0,9.0,86,0.00,,---,0.00,VWS V14.01,2013-10-20 12:32:00,
2013-10-20 07:39:00,41.9,38.0,29.93,South,186,5.0,9.0,86,0.00,,---,0.00,VWS V14.01,2013-10-20 12:39:00,
2013-10-20 07:47:00,42.0,37.8,29.93,WSW,243,3.0,9.0,85,0.00,,---,0.00,VWS V14.01,2013-10-20 12:47:00,
2013-10-20 07:54:00,42.2,38.0,29.93,South,171,1.0,9.0,85,0.00,,---,0.00,VWS V14.01,2013-10-20 12:54:00,
2013-10-20 08:02:00,42.4,38.2,29.93,SW,225,0.0,6.0,85,0.00,,---,0.00,VWS V14.01,2013-10-20 13:02:00,
2013-10-20 08:09:00,43.1,38.9,29.93,SW,221,0.0,7.0,85,0.00,,---,0.00,VWS V14.01,2013-10-20 13:09:00,
2013-10-20 08:17:00,44.0,39.2,29.93,WSW,241,0.0,1.0,83,0.00,,---,0.00,VWS V14.01,2013-10-20 13:17:00,
2013-10-20 08:24:00,44.8,39.3,29.94,SSW,213,0.0,2.0,81,0.00,,---,0.00,VWS V14.01,2013-10-20 13:24:00,
2013-10-20 08:32:00,45.4,39.6,29.93,SSW,197,0.0,0.0,80,0.00,,---,0.00,VWS V14.01,2013-10-20 13:32:00,
2013-10-20 08:39:00,46.2,40.4,29.93,South,169,0.0,0.0,80,0.00,,---,0.00,VWS V14.01,2013-10-20 13:39:00,
2013-10-20 08:47:00,46.7,40.2,29.93,SSE,159,0.0,0.0,78,0.00,,---,0.00,VWS V14.01,2013-10-20 13:47:00,
2013-10-20 08:54:00,46.7,40.2,29.93,SSW,204,0.0,0.0,78,0.00,,---,0.00,VWS V14.01,2013-10-20 13:54:00,
2013-10-20 09:02:00,46.7,40.5,29.93,South,180,0.0,0.0,79,0.00,,---,0.00,VWS V14.01,2013-10-20 14:02:00,
2013-10-20 09:09:00,46.8,40.6,29.94,SSW,201,0.0,0.0,79,0.00,,---,0.00,VWS V14.01,2013-10-20 14:09:00,
2013-10-20 09:17:00,47.2,40.7,29.94,SSW,213,0.0,0.0,78,0.00,,---,0.00,VWS V14.01,2013-10-20 14:17:00,
2013-10-20 09:24:00,47.5,41.0,29.94,WSW,240,0.0,1.0,78,0.00,,---,0.00,VWS V14.01,2013-10-20 14:24:00,
2013-10-20 09:32:00,47.8,41.3,29.93,South,186,0.0,0.0,78,0.00,,---,0.00,VWS V14.01,2013-10-20 14:32:00,
2013-10-20 09:39:00,48.1,41.6,29.93,SW,228,0.0,1.0,78,0.00,,---,0.00,VWS V14.01,2013-10-20 14:39:00,
2013-10-20 09:47:00,48.8,42.3,29.93,South,169,0.0,0.0,78,0.00,,---,0.00,VWS V14.01,2013-10-20 14:47:00,
2013-10-20 09:54:00,50.1,42.8,29.93,WSW,242,0.0,0.0,76,0.00,,---,0.00,VWS V14.01,2013-10-20 14:54:00,
2013-10-20 10:02:00,51.1,42.8,29.92,WSW,240,0.0,0.0,73,0.00,,---,0.00,VWS V14.01,2013-10-20 15:02:00,
2013-10-20 10:09:00,51.4,42.7,29.92,SW,223,0.0,0.0,72,0.00,,---,0.00,VWS V14.01,2013-10-20 15:09:00,
2013-10-20 10:17:00,51.5,42.4,29.92,South,169,0.0,0.0,71,0.00,,---,0.00,VWS V14.01,2013-10-20 15:17:00,
2013-10-20 10:24:00,51.6,42.5,29.92,WSW,248,0.0,0.0,71,0.00,,---,0.00,VWS V14.01,2013-10-20 15:24:00,
2013-10-20 10:32:00,51.8,42.7,29.92,West,269,0.0,0.0,71,0.00,,---,0.00,VWS V14.01,2013-10-20 15:32:00,
2013-10-20 10:39:00,52.0,42.5,29.93,SW,227,0.0,0.0,70,0.00,,---,0.00,VWS V14.01,2013-10-20 15:39:00,
2013-10-20 10:47:00,52.1,42.6,29.93,SSW,203,0.0,0.0,70,0.00,,---,0.00,VWS V14.01,2013-10-20 15:47:00,
2013-10-20 10:55:00,52.4,42.9,29.93,WSW,244,0.0,0.0,70,0.00,,---,0.00,VWS V14.01,2013-10-20 15:55:00,
2013-10-20 11:02:00,52.8,42.9,29.92,South,184,0.0,0.0,69,0.00,,---,0.00,VWS V14.01,2013-10-20 16:02:00,
2013-10-20 11:10:00,53.6,43.3,29.92,SSW,209,0.0,0.0,68,0.00,,---,0.00,VWS V14.01,2013-10-20 16:10:00,
2013-10-20 11:17:00,55.1,44.3,29.91,South,184,0.0,0.0,67,0.00,,---,0.00,VWS V14.01,2013-10-20 16:17:00,
2013-10-20 11:25:00,56.8,44.3,29.90,SSE,150,0.0,0.0,63,0.00,,---,0.00,VWS V14.01,2013-10-20 16:25:00,
2013-10-20 11:32:00,57.5,44.2,29.91,ESE,120,0.0,0.0,61,0.00,,---,0.00,VWS V14.01,2013-10-20 16:32:00,
2013-10-20 11:40:00,57.8,44.0,29.90,SSW,213,0.0,0.0,60,0.00,,---,0.00,VWS V14.01,2013-10-20 16:40:00,
2013-10-20 11:47:00,58.1,44.3,29.90,SSW,213,0.0,0.0,60,0.00,,---,0.00,VWS V14.01,2013-10-20 16:47:00,
2013-10-20 11:55:00,58.4,44.6,29.90,SSE,165,0.0,0.0,60,0.00,,---,0.00,VWS V14.01,2013-10-20 16:55:00,
2013-10-20 12:02:00,58.5,44.2,29.90,West,273,0.0,0.0,59,0.00,,---,0.00,VWS V14.01,2013-10-20 17:02:00,
2013-10-20 12:10:00,58.7,44.4,29.90,South,178,0.0,0.0,59,0.00,,---,0.00,VWS V14.01,2013-10-20 17:10:00,
2013-10-20 12:17:00,59.4,45.5,29.89,South,169,0.0,0.0,60,0.00,,---,0.00,VWS V14.01,2013-10-20 17:17:00,
2013-10-20 12:25:00,61.0,45.2,29.89,South,171,0.0,0.0,56,0.00,,---,0.00,VWS V14.01,2013-10-20 17:25:00,
2013-10-20 12:32:00,61.8,45.5,29.88,WSW,237,0.0,0.0,55,0.00,,---,0.00,VWS V14.01,2013-10-20 17:32:00,
2013-10-20 12:40:00,62.0,44.7,29.89,South,188,0.0,0.0,53,0.00,,---,0.00,VWS V14.01,2013-10-20 17:40:00,
2013-10-20 12:41:00,61.9,44.6,29.88,South,182,0.0,0.0,53,0.00,,---,0.00,VWS V14.01,2013-10-20 17:41:00,
2013-10-20 12:47:00,62.3,45.0,29.88,South,183,0.0,0.0,53,0.00,,---,0.00,VWS V14.01,2013-10-20 17:47:00,
2013-10-20 12:55:00,62.6,44.8,29.88,WNW,286,0.0,0.0,52,0.00,,---,0.00,VWS V14.01,2013-10-20 17:55:00,
2013-10-20 13:02:00,62.6,45.2,29.87,SSW,195,0.0,0.0,53,0.00,,---,0.00,VWS V14.01,2013-10-20 18:02:00,
2013-10-20 13:10:00,62.9,45.0,29.86,SSW,198,0.0,0.0,52,0.00,,---,0.00,VWS V14.01,2013-10-20 18:10:00,
2013-10-20 13:17:00,63.3,44.9,29.86,SSE,163,0.0,0.0,51,0.00,,---,0.00,VWS V14.01,2013-10-20 18:17:00,
2013-10-20 13:25:00,63.7,45.2,29.85,SW,219,0.0,0.0,51,0.00,,---,0.00,VWS V14.01,2013-10-20 18:25:00,
2013-10-20 13:32:00,64.7,45.7,29.84,South,188,0.0,0.0,50,0.00,,---,0.00,VWS V14.01,2013-10-20 18:32:00,
2013-10-20 13:40:00,64.9,45.3,29.84,South,185,0.0,0.0,49,0.00,,---,0.00,VWS V14.01,2013-10-20 18:40:00,
2013-10-20 13:47:00,65.6,45.4,29.83,SW,222,0.0,0.0,48,0.00,,---,0.00,VWS V14.01,2013-10-20 18:47:00,
2013-10-20 13:55:00,66.5,45.1,29.83,SSE,165,0.0,0.0,46,0.00,,---,0.00,VWS V14.01,2013-10-20 18:55:00,
2013-10-20 14:02:00,66.8,44.2,29.83,SSW,205,0.0,0.0,44,0.00,,---,0.00,VWS V14.01,2013-10-20 19:02:00,
2013-10-20 14:10:00,66.1,44.2,29.83,SW,218,0.0,0.0,45,0.00,,---,0.00,VWS V14.01,2013-10-20 19:10:00,
2013-10-20 14:17:00,65.7,43.8,29.82,SSW,194,0.0,0.0,45,0.00,,---,0.00,VWS V14.01,2013-10-20 19:17:00,
2013-10-20 14:25:00,66.1,44.2,29.82,SW,228,0.0,0.0,45,0.00,,---,0.00,VWS V14.01,2013-10-20 19:25:00,
2013-10-20 14:32:00,67.1,43.9,29.81,WSW,251,0.0,0.0,43,0.00,,---,0.00,VWS V14.01,2013-10-20 19:32:00,
2013-10-20 14:41:00,68.0,44.7,29.81,SSW,208,0.0,0.0,43,0.00,,---,0.00,VWS V14.01,2013-10-20 19:41:00,
2013-10-20 14:48:00,68.7,44.7,29.80,South,191,0.0,0.0,42,0.00,,---,0.00,VWS V14.01,2013-10-20 19:48:00,
2013-10-20 14:55:00,69.2,43.9,29.81,SW,230,0.0,0.0,40,0.00,,---,0.00,VWS V14.01,2013-10-20 19:55:00,
2013-10-20 15:03:00,69.4,44.1,29.80,SSW,207,0.0,0.0,40,0.00,,---,0.00,VWS V14.01,2013-10-20 20:03:00,
2013-10-20 15:10:00,69.5,44.2,29.80,South,190,0.0,0.0,40,0.00,,---,0.00,VWS V14.01,2013-10-20 20:10:00,
2013-10-20 15:18:00,69.8,43.8,29.80,SW,221,0.0,0.0,39,0.00,,---,0.00,VWS V14.01,2013-10-20 20:18:00,
2013-10-20 15:25:00,69.9,43.8,29.80,SSE,150,0.0,0.0,39,0.00,,---,0.00,VWS V14.01,2013-10-20 20:25:00,
2013-10-20 15:33:00,69.9,43.8,29.79,SSW,197,0.0,0.0,39,0.00,,---,0.00,VWS V14.01,2013-10-20 20:33:00,
2013-10-20 15:40:00,69.7,43.7,29.80,WSW,251,0.0,0.0,39,0.00,,---,0.00,VWS V14.01,2013-10-20 20:40:00,
2013-10-20 15:48:00,69.9,43.8,29.80,SW,219,0.0,0.0,39,0.00,,---,0.00,VWS V14.01,2013-10-20 20:48:00,
2013-10-20 15:55:00,69.3,43.3,29.80,South,186,0.0,0.0,39,0.00,,---,0.00,VWS V14.01,2013-10-20 20:55:00,
2013-10-20 16:03:00,69.2,43.9,29.80,SSW,209,0.0,0.0,40,0.00,,---,0.00,VWS V14.01,2013-10-20 21:03:00,
2013-10-20 16:10:00,68.8,44.2,29.81,SSE,151,0.0,0.0,41,0.00,,---,0.00,VWS V14.01,2013-10-20 21:10:00,
2013-10-20 16:18:00,68.0,44.1,29.80,SW,235,0.0,0.0,42,0.00,,---,0.00,VWS V14.01,2013-10-20 21:18:00,
2013-10-20 16:25:00,67.5,44.2,29.81,SSW,203,0.0,0.0,43,0.00,,---,0.00,VWS V14.01,2013-10-20 21:25:00,
2013-10-20 16:33:00,67.2,44.6,29.81,SSW,210,0.0,0.0,44,0.00,,---,0.00,VWS V14.01,2013-10-20 21:33:00,
2013-10-20 16:40:00,66.9,44.3,29.81,WSW,243,0.0,0.0,44,0.00,,---,0.00,VWS V14.01,2013-10-20 21:40:00,
2013-10-20 16:48:00,66.7,44.7,29.81,SW,225,0.0,0.0,45,0.00,,---,0.00,VWS V14.01,2013-10-20 21:48:00,
2013-10-20 16:55:00,66.7,44.1,29.81,SW,217,0.0,0.0,44,0.00,,---,0.00,VWS V14.01,2013-10-20 21:55:00,
2013-10-20 17:03:00,66.5,44.5,29.81,South,185,0.0,0.0,45,0.00,,---,0.00,VWS V14.01,2013-10-20 22:03:00,
2013-10-20 17:10:00,66.5,44.5,29.82,SSW,206,0.0,0.0,45,0.00,,---,0.00,VWS V14.01,2013-10-20 22:10:00,
2013-10-20 17:18:00,66.4,45.0,29.82,WSW,249,0.0,0.0,46,0.00,,---,0.00,VWS V14.01,2013-10-20 22:18:00,
2013-10-20 17:25:00,66.2,44.2,29.82,South,170,0.0,0.0,45,0.00,,---,0.00,VWS V14.01,2013-10-20 22:25:00,
2013-10-20 17:33:00,66.2,43.7,29.82,SW,217,0.0,0.0,44,0.00,,---,0.00,VWS V14.01,2013-10-20 22:33:00,
2013-10-20 17:40:00,66.1,43.6,29.82,SW,235,0.0,0.0,44,0.00,,---,0.00,VWS V14.01,2013-10-20 22:40:00,
2013-10-20 17:48:00,66.0,44.1,29.82,WSW,242,0.0,0.0,45,0.00,,---,0.00,VWS V14.01,2013-10-20 22:48:00,
2013-10-20 17:55:00,65.8,43.9,29.82,South,190,0.0,0.0,45,0.00,,---,0.00,VWS V14.01,2013-10-20 22:55:00,
2013-10-20 18:03:00,65.6,44.3,29.82,SW,224,0.0,0.0,46,0.00,,---,0.00,VWS V14.01,2013-10-20 23:03:00,
2013-10-20 18:10:00,65.4,44.1,29.82,South,172,0.0,0.0,46,0.00,,---,0.00,VWS V14.01,2013-10-20 23:10:00,
2013-10-20 18:18:00,65.1,44.4,29.82,WSW,251,0.0,0.0,47,0.00,,---,0.00,VWS V14.01,2013-10-20 23:18:00,
2013-10-20 18:25:00,64.8,44.7,29.82,SSE,164,0.0,0.0,48,0.00,,---,0.00,VWS V14.01,2013-10-20 23:25:00,
2013-10-20 18:33:00,64.2,44.7,29.82,South,190,0.0,0.0,49,0.00,,---,0.00,VWS V14.01,2013-10-20 23:33:00,
2013-10-20 18:40:00,63.8,44.8,29.83,South,174,0.0,0.0,50,0.00,,---,0.00,VWS V14.01,2013-10-20 23:40:00,
2013-10-20 18:48:00,63.3,44.4,29.83,SSW,212,0.0,0.0,50,0.00,,---,0.00,VWS V14.01,2013-10-20 23:48:00,
2013-10-20 18:56:00,63.0,44.6,29.83,SSE,163,0.0,0.0,51,0.00,,---,0.00,VWS V14.01,2013-10-20 23:56:00,
2013-10-20 19:03:00,62.5,44.7,29.83,SSW,194,0.0,0.0,52,0.00,,---,0.00,VWS V14.01,2013-10-21 00:03:00,
2013-10-20 19:11:00,62.1,44.8,29.83,SW,227,0.0,0.0,53,0.00,,---,0.00,VWS V14.01,2013-10-21 00:11:00,
2013-10-20 19:18:00,61.7,44.4,29.83,South,170,0.0,0.0,53,0.00,,---,0.00,VWS V14.01,2013-10-21 00:18:00,
2013-10-20 19:26:00,61.3,44.5,29.83,SSE,165,0.0,0.0,54,0.00,,---,0.00,VWS V14.01,2013-10-21 00:26:00,
2013-10-20 19:33:00,61.1,44.8,29.83,WSW,238,0.0,0.0,55,0.00,,---,0.00,VWS V14.01,2013-10-21 00:33:00,
2013-10-20 19:41:00,61.0,44.7,29.84,South,174,0.0,0.0,55,0.00,,---,0.00,VWS V14.01,2013-10-21 00:41:00,
2013-10-20 19:48:00,60.9,44.6,29.84,SW,226,0.0,0.0,55,0.00,,---,0.00,VWS V14.01,2013-10-21 00:48:00,
2013-10-20 19:56:00,60.7,44.9,29.84,South,184,0.0,0.0,56,0.00,,---,0.00,VWS V14.01,2013-10-21 00:56:00,
2013-10-20 20:03:00,60.5,44.7,29.84,SSE,153,0.0,0.0,56,0.00,,---,0.00,VWS V14.01,2013-10-21 01:03:00,
2013-10-20 20:11:00,60.3,44.6,29.85,SE,134,0.0,0.0,56,0.00,,---,0.00,VWS V14.01,2013-10-21 01:11:00,
2013-10-20 20:26:00,59.8,45.0,29.85,South,172,0.0,0.0,58,0.00,,---,0.00,VWS V14.01,2013-10-21 01:26:00,
2013-10-20 20:33:00,59.5,44.7,29.85,WSW,240,0.0,0.0,58,0.00,,---,0.00,VWS V14.01,2013-10-21 01:33:00,
2013-10-20 20:41:00,59.3,44.5,29.85,SSW,192,0.0,0.0,58,0.00,,---,0.00,VWS V14.01,2013-10-21 01:41:00,
2013-10-20 20:48:00,59.1,44.8,29.86,West,265,0.0,0.0,59,0.00,,---,0.00,VWS V14.01,2013-10-21 01:48:00,
2013-10-20 20:56:00,58.9,45.1,29.86,WSW,249,0.0,0.0,60,0.00,,---,0.00,VWS V14.01,2013-10-21 01:56:00,
2013-10-20 21:03:00,58.6,44.8,29.86,SSE,155,0.0,0.0,60,0.00,,---,0.00,VWS V14.01,2013-10-21 02:03:00,
2013-10-20 21:11:00,58.4,45.0,29.86,South,172,0.0,0.0,61,0.00,,---,0.00,VWS V14.01,2013-10-21 02:11:00,
2013-10-20 21:18:00,58.2,44.8,29.86,WSW,239,0.0,0.0,61,0.00,,---,0.00,VWS V14.01,2013-10-21 02:18:00,
2013-10-20 21:26:00,58.0,45.1,29.86,SSW,208,0.0,0.0,62,0.00,,---,0.00,VWS V14.01,2013-10-21 02:26:00,
2013-10-20 21:33:00,57.7,44.8,29.86,South,187,0.0,0.0,62,0.00,,---,0.00,VWS V14.01,2013-10-21 02:33:00,
2013-10-20 21:41:00,57.4,44.9,29.87,SW,221,0.0,0.0,63,0.00,,---,0.00,VWS V14.01,2013-10-21 02:41:00,
2013-10-20 21:48:00,57.2,45.2,29.87,SSW,204,0.0,0.0,64,0.00,,---,0.00,VWS V14.01,2013-10-21 02:48:00,
2013-10-20 21:56:00,57.1,45.0,29.87,South,185,0.0,0.0,64,0.00,,---,0.00,VWS V14.01,2013-10-21 02:56:00,
2013-10-20 22:04:00,56.9,44.9,29.87,SW,232,0.0,0.0,64,0.00,,---,0.00,VWS V14.01,2013-10-21 03:04:00,
2013-10-20 22:11:00,56.8,45.2,29.87,SW,221,0.0,0.0,65,0.00,,---,0.00,VWS V14.01,2013-10-21 03:11:00,
2013-10-20 22:19:00,56.8,45.2,29.87,SSE,155,0.0,0.0,65,0.00,,---,0.00,VWS V14.01,2013-10-21 03:19:00,
2013-10-20 22:26:00,56.8,45.6,29.87,WSW,239,0.0,0.0,66,0.00,,---,0.00,VWS V14.01,2013-10-21 03:26:00,
2013-10-20 22:34:00,56.8,45.6,29.87,South,176,0.0,0.0,66,0.00,,---,0.00,VWS V14.01,2013-10-21 03:34:00,
2013-10-20 22:41:00,56.7,45.5,29.87,SSW,192,0.0,0.0,66,0.00,,---,0.00,VWS V14.01,2013-10-21 03:41:00,
2013-10-20 22:49:00,56.8,45.6,29.87,SW,218,0.0,0.0,66,0.00,,---,0.00,VWS V14.01,2013-10-21 03:49:00,
2013-10-20 22:56:00,56.8,45.6,29.87,SW,219,0.0,0.0,66,0.00,,---,0.00,VWS V14.01,2013-10-21 03:56:00,
2013-10-20 23:04:00,56.7,45.5,29.87,SW,234,0.0,0.0,66,0.00,,---,0.00,VWS V14.01,2013-10-21 04:04:00,
2013-10-20 23:11:00,56.6,45.4,29.87,SW,226,0.0,0.0,66,0.00,,---,0.00,VWS V14.01,2013-10-21 04:11:00,
2013-10-20 23:19:00,56.5,45.7,29.87,SSW,208,0.0,0.0,67,0.00,,---,0.00,VWS V14.01,2013-10-21 04:19:00,
2013-10-20 23:26:00,56.5,45.7,29.87,SW,217,0.0,0.0,67,0.00,,---,0.00,VWS V14.01,2013-10-21 04:26:00,
2013-10-20 23:34:00,56.4,45.6,29.88,South,181,0.0,0.0,67,0.00,,---,0.00,VWS V14.01,2013-10-21 04:34:00,
2013-10-20 23:41:00,56.3,45.9,29.88,SW,223,0.0,0.0,68,0.00,,---,0.00,VWS V14.01,2013-10-21 04:41:00,
2013-10-20 23:49:00,56.2,45.8,29.88,West,259,0.0,0.0,68,0.00,,---,0.00,VWS V14.01,2013-10-21 04:49:00,
2013-10-20 23:56:00,56.0,45.6,29.88,WSW,250,0.0,0.0,68,0.00,,---,0.00,VWS V14.01,2013-10-21 04:56:00,